GW1213 Weather Reports


time (UTC)temp
C
wind
direction
speed
KPH
gust
KPH
rain 1hr
cm
rain 24hr
cm
rain mn
cm
humidity
%
barometer
mb
20260507092538 12 0 0.0 0.0 0.00 0.25 0.08 87 1011.0
20260507092038 12 0 0.0 0.0 0.00 0.25 0.08 87 1011.0
20260507091557 12 0 0.0 0.0 0.00 0.25 0.08 86 1011.2
20260507091038 12 0 0.0 1.6 0.00 0.25 0.08 87 1011.2
20260507090538 12 0 0.0 1.6 0.00 0.25 0.08 86 1010.8
20260507090052 12 0 0.0 0.0 0.00 0.25 0.08 87 1010.8
20260507085538 12 0 0.0 0.0 0.00 0.25 0.08 88 1010.7
20260507085038 13 0 0.0 0.0 0.00 0.25 0.08 89 1010.5
20260507084548 13 0 0.0 0.0 0.00 0.25 0.08 89 1010.5
20260507084037 13 0 0.0 0.0 0.00 0.25 0.08 89 1010.8
20260507083538 13 0 0.0 0.0 0.00 0.25 0.08 90 1010.8
20260507083048 13 0 0.0 0.0 0.00 0.25 0.08 90 1010.8
20260507082538 13 0 0.0 0.0 0.00 0.25 0.08 90 1010.9
20260507082038 13 0 0.0 0.0 0.00 0.25 0.08 90 1011.1
20260507081550 13 0 0.0 0.0 0.00 0.25 0.08 90 1011.0
20260507081038 13 0 0.0 1.6 0.00 0.25 0.08 89 1011.0
20260507080539 13 0 0.0 3.2 0.00 0.25 0.08 89 1011.1
20260507080048 13 0 0.0 4.8 0.00 0.25 0.08 89 1010.6
20260507075538 13 0 0.0 4.8 0.00 0.25 0.08 89 1010.3
20260507075038 13 355 0.0 3.2 0.00 0.25 0.08 90 1010.2
20260507074558 13 0 0.0 0.0 0.00 0.25 0.08 90 1010.3
20260507074038 13 0 0.0 0.0 0.00 0.25 0.08 90 1010.3
20260507073542 13 0 0.0 0.0 0.00 0.25 0.08 90 1010.2
20260507073042 13 0 0.0 0.0 0.00 0.25 0.08 90 1010.1
20260507072538 13 0 0.0 0.0 0.00 0.25 0.08 90 1009.9
20260507072037 13 0 0.0 3.2 0.00 0.25 0.08 89 1009.9
20260507071552 13 0 0.0 3.2 0.00 0.25 0.08 90 1010.0
20260507071038 13 0 0.0 3.2 0.00 0.25 0.08 90 1010.0
20260507070538 13 0 0.0 0.0 0.03 0.25 0.08 89 1010.0
20260507070051 13 0 0.0 0.0 0.03 0.25 0.08 89 1010.2
20260507065538 13 0 0.0 1.6 0.03 0.25 0.08 89 1010.2
20260507065038 13 0 0.0 4.8 0.03 0.25 0.08 89 1010.1
20260507064548 13 0 0.0 6.4 0.03 0.25 0.08 89 1009.9
20260507064041 13 349 1.6 8.0 0.03 0.25 0.08 89 1010.0
20260507063536 13 9 1.6 8.0 0.03 0.25 0.08 90 1010.0
20260507063048 14 346 1.6 4.8 0.03 0.25 0.08 91 1010.2
20260507062538 14 0 1.6 6.4 0.03 0.25 0.08 91 1010.3
20260507062042 14 0 1.6 6.4 0.05 0.25 0.08 91 1010.4
20260507061552 14 0 0.0 4.8 0.05 0.25 0.08 90 1009.9
20260507061038 14 0 0.0 4.8 0.05 0.25 0.08 90 1009.6
20260507060538 14 0 0.0 6.4 0.03 0.23 0.05 90 1009.6
20260507060049 15 303 0.0 6.4 0.03 0.23 0.05 90 1009.0
20260507055538 15 0 0.0 8.0 0.03 0.23 0.05 90 1008.7
20260507055042 15 22 1.6 9.7 0.03 0.23 0.05 90 1008.6
20260507054621 15 66 1.6 9.7 0.03 0.23 0.05 90 1008.4
20260507054039 15 0 0.0 6.4 0.05 0.23 0.05 90 1008.7
20260507053538 15 0 0.0 3.2 0.05 0.23 0.05 89 1008.7
20260507053054 15 0 0.0 3.2 0.05 0.23 0.05 89 1009.0
20260507052536 16 0 0.0 0.0 0.05 0.23 0.05 89 1009.4
20260507052038 16 0 0.0 4.8 0.03 0.20 0.03 88 1009.7
20260507051549 16 0 0.0 6.4 0.03 0.20 0.03 88 1009.9
20260507051038 16 322 3.2 6.4 0.03 0.20 0.03 88 1009.9
20260507050537 16 352 0.0 3.2 0.03 0.20 0.03 89 1010.0
20260507050054 17 0 0.0 3.2 0.03 0.20 0.03 89 1009.9
20260507045538 17 0 0.0 4.8 0.03 0.20 0.03 88 1009.7
20260507045038 17 335 0.0 4.8 0.03 0.20 0.03 89 1009.7
20260507044553 17 5 0.0 4.8 0.03 0.20 0.03 88 1009.2
20260507044040 17 276 1.6 4.8 0.00 0.18 0.00 88 1009.3
20260507043538 17 0 1.6 4.8 0.00 0.18 0.00 89 1009.3
20260507043048 18 0 0.0 0.0 0.00 0.18 0.00 90 1009.5
20260507042539 18 0 0.0 0.0 0.00 0.18 0.00 90 1009.3
20260507042038 18 0 0.0 0.0 0.00 0.18 0.00 90 1009.1
20260507041559 18 0 0.0 0.0 0.00 0.18 0.00 90 1008.9
20260507041038 18 0 0.0 0.0 0.00 0.18 0.00 90 1008.9
20260507040538 18 0 0.0 0.0 0.00 0.18 0.00 90 1009.0
20260507040049 18 0 0.0 0.0 0.00 0.18 0.00 90 1009.1
20260507035535 18 0 0.0 0.0 0.00 0.18 0.18 89 1009.0
20260507035039 18 0 0.0 0.0 0.00 0.18 0.18 90 1008.9
20260507034558 18 0 0.0 0.0 0.00 0.18 0.18 90 1008.9
20260507034038 18 0 0.0 0.0 0.00 0.18 0.18 89 1008.8
20260507033538 18 0 0.0 0.0 0.00 0.18 0.18 89 1008.8
20260507033054 18 0 0.0 0.0 0.00 0.18 0.18 89 1008.6
20260507032538 18 0 0.0 0.0 0.00 0.18 0.18 89 1008.6
20260507032038 18 0 0.0 0.0 0.00 0.18 0.18 89 1008.6
20260507031603 18 0 0.0 0.0 0.00 0.18 0.18 89 1008.7
20260507031038 18 0 0.0 0.0 0.00 0.18 0.18 89 1009.0
20260507030537 18 0 0.0 0.0 0.00 0.18 0.18 89 1009.1
20260507030056 18 0 0.0 0.0 0.00 0.18 0.18 88 1009.0
20260507025538 18 0 0.0 0.0 0.00 0.18 0.18 88 1008.7
20260507025039 18 0 0.0 0.0 0.00 0.18 0.18 88 1008.7
20260507024555 18 0 0.0 0.0 0.00 0.18 0.18 88 1008.8
20260507024037 18 0 0.0 0.0 0.00 0.18 0.18 88 1008.7
20260507023538 18 0 0.0 0.0 0.00 0.18 0.18 88 1008.6
20260507023104 18 0 0.0 0.0 0.00 0.18 0.18 88 1008.2
20260507022643 18 0 0.0 0.0 0.00 0.18 0.18 88 1007.9
20260507022535 18 0 0.0 0.0 0.00 0.18 0.18 88 1007.9
20260507022036 18 0 0.0 1.6 0.00 0.18 0.18 87 1007.9
20260507021546 18 0 0.0 1.6 0.00 0.18 0.18 86 1008.0
20260507021034 18 0 0.0 0.0 0.00 0.18 0.18 86 1008.1
20260507020536 18 0 0.0 0.0 0.00 0.18 0.18 86 1008.3
20260507020056 18 0 0.0 0.0 0.00 0.18 0.18 86 1008.6
20260507015535 18 0 0.0 0.0 0.00 0.18 0.18 86 1008.4
20260507015035 19 0 0.0 0.0 0.00 0.18 0.18 85 1008.5
20260507014600 19 0 0.0 0.0 0.00 0.18 0.18 83 1008.6
20260507014035 19 0 0.0 0.0 0.00 0.18 0.18 83 1008.5
20260507013534 19 0 0.0 1.6 0.00 0.18 0.18 82 1008.6
20260507013047 19 0 0.0 1.6 0.00 0.18 0.18 82 1008.7
20260507012534 20 0 0.0 0.0 0.00 0.18 0.18 82 1008.7
20260507012035 20 0 0.0 1.6 0.00 0.18 0.18 81 1008.7
20260507011548 20 0 0.0 1.6 0.00 0.18 0.18 80 1008.7
20260507011034 20 0 0.0 0.0 0.00 0.18 0.18 80 1008.5
20260507010534 20 0 0.0 6.4 0.00 0.18 0.18 80 1008.2
20260507010047 20 0 0.0 6.4 0.00 0.18 0.18 79 1008.2
20260507005536 20 0 0.0 6.4 0.00 0.18 0.18 79 1008.4
20260507005034 20 0 1.6 6.4 0.00 0.18 0.18 79 1008.2
20260507004544 20 0 0.0 1.6 0.00 0.18 0.18 79 1008.1
20260507004035 20 0 0.0 3.2 0.00 0.18 0.18 79 1008.0
20260507003538 20 180 0.0 4.8 0.00 0.18 0.18 78 1008.1
20260507003051 20 221 0.0 6.4 0.00 0.18 0.18 78 1008.0
20260507002534 20 0 0.0 6.4 0.00 0.18 0.18 78 1008.2
20260507002035 20 207 0.0 8.0 0.00 0.18 0.18 78 1008.1
20260507001548 21 0 1.6 9.7 0.00 0.18 0.18 78 1008.1
20260507001034 21 196 3.2 9.7 0.00 0.18 0.18 78 1008.3
20260507000538 21 0 1.6 9.7 0.00 0.18 0.18 78 1008.1
20260507000048 21 0 0.0 8.0 0.00 0.18 0.18 77 1008.1
20260506235535 21 216 0.0 8.0 0.00 0.18 0.18 77 1008.2
20260506235035 21 278 1.6 8.0 0.00 0.18 0.18 77 1007.8
20260506234554 21 0 0.0 8.0 0.00 0.18 0.18 77 1007.8
20260506234035 21 0 1.6 9.7 0.00 0.18 0.18 77 1007.8
20260506233537 21 254 3.2 12.9 0.00 0.18 0.18 77 1007.6
20260506233055 21 121 3.2 12.9 0.00 0.18 0.18 76 1007.5
20260506232535 21 167 4.8 12.9 0.00 0.18 0.18 76 1007.6
20260506232035 21 240 1.6 12.9 0.00 0.18 0.18 76 1007.5
20260506231545 21 248 1.6 14.5 0.00 0.18 0.18 76 1007.6
20260506231035 21 0 3.2 16.1 0.00 0.18 0.18 75 1007.7
20260506230537 21 236 1.6 16.1 0.00 0.18 0.18 75 1007.7
20260506230053 21 190 3.2 14.5 0.00 0.18 0.18 75 1007.6
20260506225539 21 0 4.8 14.5 0.00 0.18 0.18 75 1007.7
20260506225035 21 138 1.6 9.7 0.00 0.18 0.18 74 1007.7
20260506224549 21 0 1.6 14.5 0.00 0.18 0.18 74 1007.7
20260506224034 21 250 3.2 17.7 0.00 0.18 0.18 74 1007.7
20260506223534 22 144 3.2 17.7 0.00 0.18 0.18 74 1007.6
20260506223047 22 198 4.8 17.7 0.00 0.18 0.18 73 1007.7
20260506222535 22 216 3.2 17.7 0.00 0.18 0.18 73 1007.8
20260506222034 22 232 3.2 14.5 0.00 0.18 0.18 73 1007.7
20260506221547 22 0 1.6 17.7 0.00 0.18 0.18 73 1007.7
20260506221035 22 272 6.4 17.7 0.00 0.18 0.18 73 1007.6
20260506220535 22 207 4.8 17.7 0.00 0.18 0.18 72 1007.7
20260506220047 22 222 4.8 17.7 0.00 0.18 0.18 72 1007.6
20260506215539 22 0 1.6 12.9 0.00 0.18 0.18 73 1007.7
20260506215036 22 140 3.2 16.1 0.00 0.18 0.18 72 1007.4
20260506214546 22 184 6.4 22.5 0.00 0.18 0.18 72 1007.5
20260506214035 22 212 3.2 22.5 0.00 0.18 0.18 72 1007.6
20260506213537 22 162 6.4 19.3 0.00 0.18 0.18 72 1007.7
20260506213102 22 254 6.4 19.3 0.00 0.18 0.18 72 1007.9
20260506212537 22 212 3.2 11.3 0.00 0.18 0.18 72 1007.7
20260506212038 22 266 4.8 11.3 0.00 0.18 0.18 73 1007.5
20260506211551 22 282 1.6 12.9 0.00 0.18 0.18 73 1007.7
20260506211034 22 161 3.2 12.9 0.00 0.18 0.18 73 1007.7
20260506210535 21 181 3.2 14.5 0.00 0.18 0.18 73 1007.6
20260506210047 21 221 3.2 14.5 0.00 0.18 0.18 73 1007.6
20260506205537 21 178 3.2 14.5 0.00 0.18 0.18 73 1007.6
20260506205037 21 159 3.2 14.5 0.00 0.18 0.18 73 1007.6
20260506204551 21 194 3.2 17.7 0.00 0.18 0.18 73 1007.7
20260506204036 21 204 3.2 17.7 0.00 0.18 0.18 74 1007.6
20260506203534 21 242 4.8 17.7 0.00 0.18 0.18 74 1007.7
20260506203046 21 143 4.8 16.1 0.00 0.18 0.18 74 1007.6
20260506202535 21 234 6.4 16.1 0.00 0.18 0.18 74 1007.6
20260506202034 21 0 3.2 20.9 0.00 0.18 0.18 74 1007.6
20260506201551 21 167 4.8 20.9 0.00 0.18 0.18 75 1007.8
20260506201038 20 245 3.2 17.7 0.00 0.18 0.18 76 1007.7
20260506200538 20 261 8.0 17.7 0.00 0.18 0.18 76 1007.8
20260506200054 20 92 3.2 12.9 0.00 0.18 0.18 77 1007.7
20260506195538 20 222 4.8 22.5 0.00 0.18 0.18 77 1007.6
20260506195038 20 192 6.4 22.5 0.00 0.18 0.18 78 1007.7
20260506194552 20 237 3.2 14.5 0.00 0.18 0.18 78 1007.8
20260506194034 20 242 6.4 14.5 0.00 0.18 0.18 78 1007.9
20260506193537 20 163 4.8 16.1 0.00 0.18 0.18 78 1007.8
20260506193050 20 187 3.2 16.1 0.00 0.18 0.18 79 1008.0
20260506192538 20 232 3.2 14.5 0.00 0.18 0.18 79 1008.3
20260506192038 20 205 3.2 14.5 0.00 0.18 0.18 79 1008.4
20260506191546 20 204 3.2 16.1 0.00 0.18 0.18 79 1008.3
20260506191039 20 0 1.6 17.7 0.00 0.18 0.18 79 1008.5
20260506190538 19 150 3.2 17.7 0.00 0.18 0.18 79 1008.6
20260506190051 19 0 4.8 17.7 0.00 0.18 0.18 80 1008.6
20260506185538 19 173 3.2 22.5 0.00 0.18 0.18 79 1008.6
20260506185038 19 0 8.0 22.5 0.00 0.18 0.18 79 1008.8
20260506184552 19 184 6.4 17.7 0.00 0.18 0.18 79 1008.8
20260506184038 19 253 4.8 17.7 0.00 0.18 0.18 79 1008.8
20260506183538 19 154 4.8 16.1 0.00 0.18 0.18 79 1008.9
20260506183051 19 284 3.2 16.1 0.00 0.18 0.18 79 1008.7
20260506182538 19 146 4.8 14.5 0.00 0.18 0.18 79 1008.9
20260506182038 19 193 4.8 16.1 0.00 0.18 0.18 79 1008.9
20260506181551 19 238 4.8 16.1 0.00 0.18 0.18 80 1009.0
20260506181038 19 238 4.8 16.1 0.00 0.18 0.18 80 1009.1
20260506180539 19 194 3.2 17.7 0.00 0.18 0.18 80 1008.9
20260506180059 19 191 4.8 19.3 0.00 0.18 0.18 80 1008.8
20260506175538 19 221 3.2 19.3 0.00 0.18 0.18 80 1009.1
20260506175038 19 188 6.4 19.3 0.00 0.18 0.18 80 1009.0
20260506174556 19 244 4.8 12.9 0.00 0.18 0.18 80 1009.0
20260506174038 18 263 3.2 16.1 0.00 0.18 0.18 80 1009.1
20260506173539 18 296 6.4 16.1 0.00 0.18 0.18 80 1009.1
20260506173051 18 194 1.6 16.1 0.00 0.18 0.18 82 1009.1
20260506172538 18 226 4.8 12.9 0.00 0.18 0.18 81 1009.1
20260506172038 18 95 1.6 12.9 0.00 0.18 0.18 82 1009.2
20260506171556 18 0 4.8 14.5 0.00 0.18 0.18 81 1009.2
20260506171052 18 181 4.8 16.1 0.00 0.18 0.18 81 1009.2
20260506170538 18 169 1.6 16.1 0.00 0.18 0.18 82 1009.2
20260506170105 18 198 6.4 16.1 0.00 0.18 0.18 82 1009.2
20260506165538 18 242 4.8 16.1 0.00 0.18 0.18 82 1009.2
20260506165039 18 144 4.8 16.1 0.00 0.18 0.18 82 1009.3
20260506164547 18 270 1.6 12.9 0.00 0.18 0.18 83 1009.4
20260506164038 18 0 3.2 17.7 0.00 0.18 0.18 83 1009.6
20260506163542 18 200 4.8 19.3 0.00 0.18 0.18 84 1009.5
20260506163106 18 204 4.8 19.3 0.00 0.18 0.18 84 1009.6
20260506162542 17 130 4.8 17.7 0.00 0.18 0.18 85 1009.3
20260506162041 17 157 4.8 17.7 0.00 0.18 0.18 85 1010.2
20260506161548 17 178 4.8 22.5 0.00 0.18 0.18 86 1010.0
20260506161042 17 204 6.4 22.5 0.00 0.18 0.18 86 1009.9
20260506160538 17 186 3.2 12.9 0.00 0.18 0.18 87 1009.9
20260506160045 17 164 1.6 12.9 0.00 0.18 0.18 88 1009.8
20260506155541 17 64 3.2 12.9 0.03 0.18 0.18 89 1009.7
20260506155038 17 190 1.6 16.1 0.03 0.18 0.18 89 1009.8
20260506154607 16 199 1.6 16.1 0.05 0.18 0.18 89 1009.9
20260506154038 16 26 3.2 14.5 0.05 0.18 0.18 89 1009.9
20260506153537 16 215 1.6 12.9 0.05 0.18 0.18 90 1009.8
20260506153059 16 185 3.2 11.3 0.05 0.18 0.18 89 1009.9
20260506152538 16 125 3.2 12.9 0.08 0.18 0.18 89 1009.9
20260506152035 16 0 4.8 14.5 0.13 0.18 0.18 89 1009.8
20260506151548 16 206 3.2 14.5 0.15 0.18 0.18 89 1009.7
20260506151038 16 348 3.2 12.9 0.15 0.18 0.18 89 1009.6
20260506150538 16 69 1.6 12.9 0.15 0.18 0.18 89 1009.7
20260506150048 16 250 4.8 12.9 0.15 0.18 0.18 88 1009.9
20260506145539 16 0 4.8 12.9 0.13 0.15 0.15 89 1010.0
20260506145038 16 360 3.2 11.3 0.13 0.15 0.15 89 1010.2
20260506144548 16 175 1.6 11.3 0.10 0.13 0.13 89 1010.3
20260506144038 16 229 1.6 11.3 0.10 0.13 0.13 88 1010.6
20260506143542 16 173 1.6 11.3 0.10 0.13 0.13 87 1010.4
20260506143059 17 193 1.6 11.3 0.10 0.13 0.13 87 1010.6
20260506142541 17 89 0.0 8.0 0.08 0.10 0.10 87 1010.6
20260506142038 17 0 3.2 11.3 0.03 0.05 0.05 86 1010.4
20260506141549 17 0 3.2 11.3 0.03 0.03 0.03 85 1010.4
20260506141041 17 132 1.6 11.3 0.03 0.03 0.03 85 1010.4
20260506140540 17 103 1.6 11.3 0.03 0.03 0.03 85 1010.2
20260506140054 17 190 3.2 11.3 0.03 0.03 0.03 85 1010.2
20260506135537 17 0 1.6 11.3 0.03 0.03 0.03 84 1010.2
20260506135037 17 0 1.6 11.3 0.03 0.03 0.03 84 1010.0
20260506134548 17 173 1.6 9.7 0.03 0.03 0.03 84 1010.1
20260506134039 17 0 0.0 11.3 0.03 0.03 0.03 83 1010.2
20260506133539 17 0 1.6 11.3 0.03 0.03 0.03 83 1010.1
20260506133048 17 161 1.6 9.7 0.03 0.03 0.03 82 1010.1
20260506132538 17 159 1.6 11.3 0.03 0.03 0.03 81 1010.1
20260506132038 17 147 1.6 11.3 0.03 0.03 0.03 80 1010.1
20260506131547 17 170 3.2 11.3 0.00 0.00 0.00 78 1010.2
20260506131038 17 271 0.0 11.3 0.00 0.00 0.00 77 1010.4
20260506130539 17 213 3.2 11.3 0.00 0.00 0.00 77 1010.4
20260506130047 17 241 0.0 11.3 0.00 0.00 0.00 77 1010.3
20260506125542 17 0 3.2 11.3 0.00 0.00 0.00 76 1010.1
20260506125042 17 163 1.6 9.7 0.00 0.00 0.00 76 1010.1
20260506124555 18 108 1.6 11.3 0.00 0.00 0.00 74 1010.1
20260506124038 18 0 1.6 16.1 0.00 0.00 0.00 74 1010.2
20260506123538 18 171 3.2 16.1 0.00 0.00 0.00 72 1009.8
20260506123051 18 256 3.2 16.1 0.00 0.00 0.00 72 1009.8
20260506122538 18 136 3.2 12.9 0.00 0.00 0.00 72 1009.7
20260506122038 18 0 1.6 12.9 0.00 0.00 0.00 71 1009.9
20260506121552 18 166 3.2 14.5 0.00 0.00 0.00 71 1009.9
20260506121038 18 188 1.6 14.5 0.00 0.00 0.00 71 1009.9
20260506120539 18 159 1.6 16.1 0.00 0.00 0.00 71 1009.8
20260506120058 18 0 1.6 17.7 0.00 0.00 0.00 70 1010.0
20260506115539 18 142 3.2 17.7 0.00 0.00 0.00 70 1010.1
20260506115038 18 272 3.2 19.3 0.00 0.00 0.00 70 1010.2
20260506114558 18 205 3.2 19.3 0.00 0.00 0.00 70 1010.1
20260506114038 18 231 3.2 16.1 0.00 0.00 0.00 70 1010.2
20260506113541 18 142 4.8 16.1 0.00 0.00 0.00 70 1010.2
20260506113050 18 199 3.2 16.1 0.00 0.00 0.00 70 1009.9
20260506112539 18 261 3.2 16.1 0.00 0.00 0.00 70 1010.0
20260506112038 18 259 3.2 12.9 0.00 0.00 0.00 70 1009.9
20260506111554 18 241 4.8 11.3 0.00 0.00 0.00 70 1009.9
20260506111038 18 166 1.6 12.9 0.00 0.00 0.00 70 1009.8
20260506110538 18 245 3.2 14.5 0.00 0.00 0.00 70 1009.8
20260506110059 18 235 3.2 22.5 0.00 0.00 0.00 70 1009.7
20260506105538 18 248 4.8 22.5 0.00 0.00 0.00 71 1009.6
20260506105038 18 189 3.2 16.1 0.00 0.00 0.00 71 1009.5
20260506104548 18 121 6.4 17.7 0.00 0.00 0.00 71 1009.6
20260506104038 18 132 4.8 17.7 0.00 0.00 0.00 71 1009.7
20260506103539 18 171 1.6 14.5 0.00 0.00 0.00 71 1009.7
20260506103048 18 243 4.8 16.1 0.00 0.00 0.00 71 1009.6
20260506102539 18 0 3.2 16.1 0.00 0.00 0.00 71 1009.8
20260506102039 18 208 3.2 11.3 0.00 0.00 0.00 71 1009.8
20260506101602 18 131 1.6 11.3 0.00 0.00 0.00 71 1009.8
20260506101040 18 202 0.0 11.3 0.00 0.00 0.00 71 1009.8
20260506100538 18 161 3.2 11.3 0.00 0.00 0.00 71 1009.7
20260506100051 18 146 1.6 8.0 0.00 0.00 0.00 70 1009.8
20260506095540 18 0 1.6 11.3 0.00 0.00 0.00 70 1009.7
20260506095038 18 180 1.6 11.3 0.00 0.00 0.00 70 1009.7
20260506094607 18 146 1.6 11.3 0.00 0.00 0.00 70 1009.7
20260506094038 18 218 3.2 20.9 0.00 0.00 0.00 70 1009.6
20260506093538 18 200 1.6 20.9 0.00 0.00 0.00 70 1009.5
20260506093054 18 200 4.8 20.9 0.00 0.00 0.00 70 1009.5